Weather History for KCNY - January, 2013

Change the Weather History Date:

Saturday, January 19, 2013

  Actual Average Record
Temperature  
Mean Temperature 3 °F 27 °F  
Max Temperature 16 °F 39 °F - ()
Min Temperature -10 °F 16 °F - ()
Degree Days  
Heating Degree Days 62 38  
Month to date heating degree days 1204 746  
Since 1 July heating degree days 3469 3143  
Cooling Degree Days 0 0  
Month to date cooling degree days 0 0  
Year to date cooling degree days 0 0  
Moisture  
Dew Point 0 °F    
Average Humidity 85    
Maximum Humidity 96    
Minimum Humidity 73    
Precipitation  
Precipitation 0.00 in 0.01 in - ()
Month to date precipitation 0.01 0.43  
Year to date precipitation 0.01 0.43  
Sea Level Pressure  
Sea Level Pressure 30.70 in    
Wind  
Wind Speed 2 mph (WNW)    
Max Wind Speed 13 mph    
Max Gust Speed 14 mph    
Visibility 10 miles    
Events      
T = Trace of Precipitation, MM = Missing Value Source: NWS Daily Summary

Daily Weather History Graph

Daily Weather History Graph

Search for Another Location

Airport or City:

Trip Planner

Search our weather history database for the weather conditions in past years. The results will help you decide how hot, cold, wet, or windy it might be!

Date:

Astronomy

Jan. 19, 2013 Rise Set
Actual Time 7:33 AM MST 5:26 PM MST
Civil Twilight 7:05 AM MST 5:55 PM MST
Nautical Twilight 6:32 AM MST 6:27 PM MST
Astronomical Twilight 6:00 AM MST 6:59 PM MST
Moon 11:53 AM MST (1/19) 1:12 AM MST (1/19)
Length of Visible Light 10h 50m
Length of Day
9h 52m
First Quarter, 58% of the Moon is Illuminated
Jan 19
First Quarter
Jan 26
Full
Feb 3
Last Quarter
Feb 10
New
Feb 17
First Quarter

Hourly Weather History & Observations

Time (MST) Temp. Windchill Dew Point Humidity Pressure Visibility Wind Dir Wind Speed Gust Speed Precip Events Conditions
12:53 AM -4.0 °F - -8.0 °F 83% 30.65 in 10.0 mi Calm Calm - N/A   Clear
1:53 AM 1.0 °F - -2.0 °F 87% 30.65 in 10.0 mi Calm Calm - N/A   Clear
2:53 AM -4.0 °F - -6.0 °F 91% 30.68 in 10.0 mi Calm Calm - N/A   Clear
3:53 AM -9.9 °F - -15.0 °F 78% 30.68 in 10.0 mi Calm Calm - N/A   Clear
4:53 AM -5.1 °F -13.6 °F -8.0 °F 87% 30.68 in 10.0 mi NW 3.5 mph - N/A   Clear
5:53 AM -2.9 °F - -6.0 °F 87% 30.72 in 10.0 mi Calm Calm - N/A   Clear
6:53 AM -6.0 °F - -9.9 °F 83% 30.74 in 10.0 mi Calm Calm - N/A   Clear
7:53 AM -0.9 °F -11.0 °F -4.0 °F 87% 30.74 in 10.0 mi West 4.6 mph - N/A   Clear
8:53 AM -0.0 °F - -2.0 °F 91% 30.76 in 10.0 mi Calm Calm - N/A   Clear
9:53 AM 5.0 °F - 3.9 °F 95% 30.79 in 10.0 mi Calm Calm - 0.00 in   Clear
10:53 AM 7.0 °F -1.7 °F 3.0 °F 84% 30.80 in 10.0 mi WNW 4.6 mph - N/A   Clear
11:53 AM 10.0 °F 1.8 °F 5.0 °F 80% 30.75 in 10.0 mi WNW 4.6 mph - N/A   Clear
12:53 PM 12.9 °F 0.7 °F 8.1 °F 81% 30.72 in 10.0 mi NNW 9.2 mph - N/A   Clear
1:53 PM 15.1 °F 9.4 °F 9.0 °F 77% 30.68 in 10.0 mi NW 3.5 mph - N/A   Clear
2:53 PM 16.0 °F 4.4 °F 10.0 °F 77% 30.67 in 10.0 mi NW 9.2 mph - N/A   Clear
3:53 PM 15.1 °F 3.3 °F 10.0 °F 80% 30.69 in 10.0 mi NNW 9.2 mph - N/A   Clear
4:53 PM 14.0 °F - 8.1 °F 77% 30.66 in 10.0 mi Calm Calm - N/A   Clear
5:53 PM 10.0 °F - 7.0 °F 87% 30.67 in 10.0 mi Calm Calm - N/A   Clear
6:53 PM -0.9 °F - -2.9 °F 91% 30.74 in 10.0 mi Calm Calm - N/A   Clear
7:53 PM 8.1 °F 1.4 °F 5.0 °F 87% 30.68 in 10.0 mi West 3.5 mph - N/A   Clear
8:53 PM 1.9 °F - -0.9 °F 88% 30.70 in 10.0 mi Calm Calm - N/A   Clear
9:53 PM -0.0 °F - -2.9 °F 88% 30.69 in 10.0 mi Calm Calm - N/A   Clear
10:53 PM 3.9 °F -3.4 °F 1.9 °F 91% 30.68 in 10.0 mi West 3.5 mph - N/A   Clear
11:53 PM -0.0 °F - -4.0 °F 83% 30.67 in 10.0 mi Calm Calm - N/A   Clear